Tracking 29892 objects as of 21-Nov-2024
HD Live streaming from Space Station
objects crossing your sky now

QIANFAN-1

Track QIANFAN-1 now!
10-day predictions


NORAD ID: 60379
Int'l Code: 2024-140A
Perigee: 960.8 km
Apogee: 986.1 km
Inclination: 89.0 °
Period: 104.4 minutes
Semi major axis: 7344 km
RCS: Unknown
Launch date: August 6, 2024
Source: People's Republic of China (PRC)
Launch site: Taiyaun Space Center, China (TSC)
Your satellite tracking list
Your tracking list is empty




NASA's NSSDC Master Catalog

Two Line Element Set (TLE):
1 60379U 24140A   24326.12751506  .00000103  00000-0  87234-4 0  9992
2 60379  88.9766 339.1303 0017213 209.2916 150.7288 13.79322886 15079
Source of the keplerian elements: AFSPC